Flag for Isle of Man Weather past 2 weeks in Douglas, Isle of Man

Now
57 °F

Partly sunny.


Feels Like: 55 °F
Forecast: 51 / 60 °F
Wind: 10 mph from Northwest

Location: Isle Of Man / Ronaldsway Airport

Current Time: Sep 4, 2015 at 8:32:16 PM

Latest Report: Sep 4, 2015 at 7:50 PM


Visibility: N/A

Pressure: 30.09 "Hg

Humidity: 82%

Dew point: 52 °F

Location of DouglasLocation

Historic Weather in Douglas — Graph

°F

Douglas temperature yesterday

Maximum temperature yesterday: 59 °F (at 12:20 PM)
Minimum temperature yesterday: 52 °F (at 1:50 AM)
Average temperature yesterday: 56 °F

Past Weeks' High & Low Weather Summary

 TemperatureHumidityPressure
High68 °F (Aug 23, 12:50 PM)100% (Aug 20, 7:20 PM)30.12 "Hg (Aug 20, 7:20 PM)
Low50 °F (Aug 25, 4:50 AM)51% (Sep 3, 12:20 PM)29.30 "Hg (Aug 26, 7:50 AM)
Average58 °F81%29.84 "Hg
* Reported Aug 20 7:20 PM — Sep 4 7:20 PM, Douglas, Weather by CustomWeather, © 2015

Note: Actual official high and low records may vary slightly from our data, if they occured in-between our weather recording intervals... More about our weather records

Advertising

Douglas weather history for previous 24 hours

 ConditionsComfort  
Time TempWeatherWind HumidityBarometerVisibility
7:20 PM
Fri, Sep 4
57 °FPartly sunny.12 mph88%30.09 "HgN/A
6:50 PM57 °FMostly cloudy.12 mph88%30.09 "HgN/A
6:20 PM57 °FDrizzle. Partly sunny.15 mph88%30.09 "Hg3 mi
5:20 PM57 °FPartly sunny.18 mph82%30.12 "HgN/A
4:50 PM59 °FScattered clouds.18 mph77%30.12 "HgN/A
4:20 PM59 °FBroken clouds.22 mph77%30.09 "HgN/A
3:50 PM57 °FBroken clouds.24 mph82%30.09 "HgN/A
3:20 PM59 °FPassing clouds.22 mph72%30.09 "HgN/A
2:50 PM57 °FPassing clouds.20 mph77%30.12 "HgN/A
2:20 PM57 °FPassing clouds.17 mph72%30.12 "HgN/A
1:50 PM59 °FPassing clouds.16 mph68%30.12 "HgN/A
1:20 PM59 °FPassing clouds.20 mph68%30.12 "HgN/A
12:50 PM59 °FScattered clouds.14 mph68%30.12 "HgN/A
12:20 PM57 °FScattered clouds.20 mph67%30.12 "HgN/A
11:50 AM57 °FScattered clouds.15 mph67%30.12 "HgN/A
11:20 AM57 °FPassing clouds.16 mph63%30.12 "HgN/A
10:50 AM57 °FPassing clouds.17 mph63%30.12 "HgN/A
10:20 AM55 °FPassing clouds.16 mph67%30.12 "HgN/A
9:50 AM55 °FPassing clouds.15 mph67%30.12 "HgN/A
9:20 AM55 °FPassing clouds.15 mph67%30.12 "HgN/A
8:50 AM54 °FPassing clouds.15 mph77%30.09 "HgN/A
8:20 AM54 °FScattered clouds.13 mph72%30.09 "HgN/A
7:50 AM54 °FPassing clouds.16 mph72%30.09 "HgN/A
7:20 AM54 °FPassing clouds.12 mph72%30.09 "HgN/A
6:50 AM54 °FPassing clouds.8 mph77%30.09 "HgN/A
6:20 AM54 °FPassing clouds.12 mph77%30.09 "HgN/A
5:50 AM54 °FPassing clouds.9 mph77%30.07 "HgN/A
5:20 AM54 °FPassing clouds.9 mph77%30.07 "HgN/A
4:50 AM54 °FPassing clouds.10 mph77%30.07 "HgN/A
3:50 AM54 °FPassing clouds.13 mph77%30.07 "HgN/A
2:50 AM54 °FPassing clouds.15 mph82%30.07 "HgN/A
12:50 AM54 °FPassing clouds.18 mph82%30.07 "HgN/A
11:50 PM
Thu, Sep 3
55 °FPassing clouds.3 mph82%30.07 "HgN/A
10:50 PM55 °FPassing clouds.10 mph82%30.07 "HgN/A
9:50 PM55 °FPassing clouds.8 mph77%30.07 "HgN/A
9:20 PM55 °FPassing clouds.13 mph77%30.07 "HgN/A
8:50 PM55 °FPassing clouds.15 mph82%30.07 "HgN/A
8:20 PM55 °FPassing clouds.15 mph82%30.04 "HgN/A
Weather by CustomWeather, © 2015

See weather overviewHow to use our weather pages